Location: Newark
(21.1200°N, 73.4000°E)
Time: 15:40:00
(UTC+00:00)

Explorer 11/Cluster Stage 4 - Pass Details

Date: 26 January 2020
Orbit: 467 x 1259 km, 28.8° (Epoch: 23 February)

Event Time Altitude Azimuth Distance (km) Brightness Sun altitude
Rises 10:02:19 0° 277° (W) 4,198 10.8 33.5°
Reaches altitude 10° 10:05:26 10° 282° (WNW) 3,225 10.3 32.9°
Maximum altitude 10:13:19 48° 355° (N) 1,501 8.1 31.5°
Drops below altitude 10° 10:20:23 10° 68° (ENE) 2,894 9.1 30.3°
Sets 10:23:02 0° 74° (ENE) 3,740 9.6 29.8°
